Terug naar catalogus

STARLINK-31791

ActiefCommunicatieVLEO
NORAD 59637·PAYLOAD·🇺🇸 United States

Gelanceerd May 3, 2024 vanaf Cape Canaveral Space Force Station

Loading…

Volgende Passages (komende 24 uur)

TLE

VersSource: CelesTrak SupGP

Epoch: Sep 15, 2026, 03:27 UTC

1 59637C 24082G   26258.14423611  .00059377  00000+0  21509-2 0  2588
2 59637  43.0008 149.6407 0001348 280.3890 280.9806 15.27544938    16

Volg STARLINK-31791 in realtime met AllMySat

Download on the App Store